This is the latest recevied weather packets stored in our database for station/object KC5DAQ-28. If no packets are shown the sender has not sent any weather packets the latest 10 day(s).
| Time | Temp. | Humidity | Pressure | Rain* | Wind** | Luminosity | Snow |
|---|---|---|---|---|---|---|---|
| 1778243999 | 20° C | 85% | 1006.9 hPa | 0 mm | - | 86 W/m² | - |
| 1778243938 | 20° C | 85% | 1006.9 hPa | 0 mm | - | 86 W/m² | - |
| 1778243878 | 20° C | 85% | 1007 hPa | 0 mm | - | 88 W/m² | - |
| 1778243818 | 20° C | 85% | 1007 hPa | 0 mm | - | 76 W/m² | - |
| 1778243759 | 20° C | 85% | 1006.9 hPa | 0 mm | - | 76 W/m² | - |
| 1778243699 | 20° C | 85% | 1006.9 hPa | 0 mm | - | 76 W/m² | - |
| 1778243640 | 20° C | 85% | 1006.9 hPa | 0 mm | - | 67 W/m² | - |
| 1778243580 | 20° C | 85% | 1006.9 hPa | 0 mm | - | 67 W/m² | - |
| 1778243518 | 20° C | 85% | 1006.9 hPa | 0 mm | - | 60 W/m² | - |
| 1778243458 | 20° C | 85% | 1007 hPa | 0 mm | - | 60 W/m² | - |
| 1778243399 | 20° C | 85% | 1007 hPa | 0 mm | - | 60 W/m² | - |
| 1778243338 | 20° C | 85% | 1007.2 hPa | 0 mm | - | 56 W/m² | - |
| 1778243281 | 20° C | 85% | 1007.2 hPa | 0 mm | - | 56 W/m² | - |
| 1778243218 | 20° C | 85% | 1007.3 hPa | 0 mm | - | 56 W/m² | - |
| 1778243158 | 20° C | 85% | 1007.2 hPa | 0 mm | - | 56 W/m² | - |
| 1778243098 | 20° C | 85% | 1007.2 hPa | 0 mm | - | 56 W/m² | - |
| 1778243039 | 20° C | 85% | 1007.3 hPa | 0 mm | - | 51 W/m² | - |
| 1778242978 | 20° C | 85% | 1007.2 hPa | 0 mm | - | 51 W/m² | - |
| 1778242917 | 20° C | 85% | 1007.1 hPa | 0 mm | - | 49 W/m² | - |
| 1778242859 | 20° C | 85% | 1007.1 hPa | 0 mm | - | 48 W/m² | - |
| 1778242798 | 20° C | 85% | 1007.1 hPa | 0 mm | - | 49 W/m² | - |
| 1778242738 | 20° C | 85% | 1007.1 hPa | 0 mm | - | 53 W/m² | - |
| 1778242678 | 20° C | 85% | 1007.1 hPa | 0 mm | - | 56 W/m² | - |
| 1778242619 | 20° C | 85% | 1007 hPa | 0 mm | - | 60 W/m² | - |
| 1778242559 | 20° C | 85% | 1007.1 hPa | 0 mm | - | 63 W/m² | - |
* Rain latest hour (hover to see other rain measurements)
** Current wind speed in m/s (hover to see current wind gust speed)